User: anonymous   Login
Location: Newark
(56.0692°N, 115.8617°E)
Time: 22:19:58
(UTC+00:00)
Language:

Courier 1B Rocket - Orbit

View from above orbital plane
View from above orbital plane
View from above satellite
View from above satellite

Ground track
Ground track

The orbit data is extracted from the following two-line orbital elements,

1    59U 60013B   20145.85935535 +.00000105 +00000-0 +25859-4 0  9998
2    59 028.2495 339.4024 0189101 088.1444 274.0747 13.52975868943405
Epoch (UTC): 24 May 2020 20:37:28
Eccentricity: 0.0189101
inclination: 28.2495°
perigee height: 920 km
apogee height: 1202 km
right ascension of ascending node: 339.4024°
argument of perigee: 88.1444°
revolutions per day: 13.52975868
mean anomaly at epoch: 274.0747°
orbit number at epoch: 94340

The dashed part of the orbit path shows where the satellite is in the earth's shadow,  

DLR